Tracking 35331 objects as of 17-Sep-2026
HD Live streaming from Space Station
objects crossing your sky now

OBJECT K

Track OBJECT K now!
10-day predictions


NORAD ID: 42834
Int'l Code: 2017-042K
Launch date: July 14, 2017
Source: (TBD)
Launch site: TYURATAM MISSILE AND SPACE COMPLEX (TTMTR)
Your satellite tracking list
Your tracking list is empty




NASA's NSSDC Master Catalog

Two Line Element Set (TLE):
1 42834U 17042K   26259.40685902  .00004503  00000-0  28221-3 0  9993
2 42834  97.4328  58.1191 0010143 104.6543 255.5812 15.09797303500741
Source of the keplerian elements: AFSPC